owner,sensor,date,latitude,longitude,mass_concentration_of_chlorophyll_in_sea_water,qcFlag 
LUMCON,ioos:station:LUMCON:wisl1:1,2019-11-01T00:00:00Z,29.1144,-90.1840,7.87,11111222 
LUMCON,ioos:station:LUMCON:wisl1:1,2019-11-01T00:15:00Z,29.1144,-90.1840,8.28,11111222 
LUMCON,ioos:station:LUMCON:wisl1:1,2019-11-01T00:30:00Z,29.1144,-90.1840,6.99,11111222 
LUMCON,ioos:station:LUMCON:wisl1:1,2019-11-01T00:45:00Z,29.1144,-90.1840,4.8,11111222 
LUMCON,ioos:station:LUMCON:wisl1:1,2019-11-01T01:00:00Z,29.1144,-90.1840,4.2,11111222 
LUMCON,ioos:station:LUMCON:wisl1:1,2019-11-01T01:15:00Z,29.1144,-90.1840,3.99,11111222 
LUMCON,ioos:station:LUMCON:wisl1:1,2019-11-01T01:30:00Z,29.1144,-90.1840,3.51,11111222 
LUMCON,ioos:station:LUMCON:wisl1:1,2019-11-01T01:45:00Z,29.1144,-90.1840,3.23,11111222 
LUMCON,ioos:station:LUMCON:wisl1:1,2019-11-01T02:00:00Z,29.1144,-90.1840,2.21,11111222 
LUMCON,ioos:station:LUMCON:wisl1:1,2019-11-01T02:15:00Z,29.1144,-90.1840,2.12,11111222 
LUMCON,ioos:station:LUMCON:wisl1:1,2019-11-01T02:30:00Z,29.1144,-90.1840,2.17,11111222 
LUMCON,ioos:station:LUMCON:wisl1:1,2019-11-01T02:45:00Z,29.1144,-90.1840,1.93,11113222 
LUMCON,ioos:station:LUMCON:wisl1:1,2019-11-01T03:00:00Z,29.1144,-90.1840,1.7,11113222 
LUMCON,ioos:station:LUMCON:wisl1:1,2019-11-01T03:15:00Z,29.1144,-90.1840,1.57,11113222 
LUMCON,ioos:station:LUMCON:wisl1:1,2019-11-01T03:30:00Z,29.1144,-90.1840,1.52,11113222 
LUMCON,ioos:station:LUMCON:wisl1:1,2019-11-01T03:45:00Z,29.1144,-90.1840,1.74,11113222 
LUMCON,ioos:station:LUMCON:wisl1:1,2019-11-01T04:00:00Z,29.1144,-90.1840,1.57,11113222 
LUMCON,ioos:station:LUMCON:wisl1:1,2019-11-01T04:15:00Z,29.1144,-90.1840,1.41,11113222 
LUMCON,ioos:station:LUMCON:wisl1:1,2019-11-01T04:30:00Z,29.1144,-90.1840,1.64,11113222 
LUMCON,ioos:station:LUMCON:wisl1:1,2019-11-01T04:45:00Z,29.1144,-90.1840,1.13,11113222 
LUMCON,ioos:station:LUMCON:wisl1:1,2019-11-01T11:15:00Z,29.1144,-90.1840,2.49,11111222 
LUMCON,ioos:station:LUMCON:wisl1:1,2019-11-01T11:30:00Z,29.1144,-90.1840,2.63,11111222 
LUMCON,ioos:station:LUMCON:wisl1:1,2019-11-01T11:45:00Z,29.1144,-90.1840,2.6,11111222 
LUMCON,ioos:station:LUMCON:wisl1:1,2019-11-01T12:00:00Z,29.1144,-90.1840,3.02,11111222 
LUMCON,ioos:station:LUMCON:wisl1:1,2019-11-01T12:15:00Z,29.1144,-90.1840,3.84,11111222 
LUMCON,ioos:station:LUMCON:wisl1:1,2019-11-01T12:30:00Z,29.1144,-90.1840,3.97,11111222 
LUMCON,ioos:station:LUMCON:wisl1:1,2019-11-01T12:45:00Z,29.1144,-90.1840,4.67,11111222 
LUMCON,ioos:station:LUMCON:wisl1:1,2019-11-01T13:00:00Z,29.1144,-90.1840,4.64,11111222 
LUMCON,ioos:station:LUMCON:wisl1:1,2019-11-01T13:15:00Z,29.1144,-90.1840,4.89,11111222 
LUMCON,ioos:station:LUMCON:wisl1:1,2019-11-01T13:30:00Z,29.1144,-90.1840,6.6,11111222 
LUMCON,ioos:station:LUMCON:wisl1:1,2019-11-01T13:45:00Z,29.1144,-90.1840,6.66,11111222 
LUMCON,ioos:station:LUMCON:wisl1:1,2019-11-01T14:00:00Z,29.1144,-90.1840,6.86,11111222 
LUMCON,ioos:station:LUMCON:wisl1:1,2019-11-01T14:15:00Z,29.1144,-90.1840,7.22,11111222 
LUMCON,ioos:station:LUMCON:wisl1:1,2019-11-01T14:30:00Z,29.1144,-90.1840,6.91,11111222 
LUMCON,ioos:station:LUMCON:wisl1:1,2019-11-01T14:45:00Z,29.1144,-90.1840,6.74,11111222 
LUMCON,ioos:station:LUMCON:wisl1:1,2019-11-01T15:00:00Z,29.1144,-90.1840,6.1,11111222 
LUMCON,ioos:station:LUMCON:wisl1:1,2019-11-01T15:15:00Z,29.1144,-90.1840,6.58,11111222 
LUMCON,ioos:station:LUMCON:wisl1:1,2019-11-01T15:30:00Z,29.1144,-90.1840,6.29,11111222 
LUMCON,ioos:station:LUMCON:wisl1:1,2019-11-01T15:45:00Z,29.1144,-90.1840,6.27,11111222 
LUMCON,ioos:station:LUMCON:wisl1:1,2019-11-01T16:00:00Z,29.1144,-90.1840,6.42,11111222 
LUMCON,ioos:station:LUMCON:wisl1:1,2019-11-01T16:15:00Z,29.1144,-90.1840,6.8,11111222 
LUMCON,ioos:station:LUMCON:wisl1:1,2019-11-01T16:30:00Z,29.1144,-90.1840,6.65,11111222 
LUMCON,ioos:station:LUMCON:wisl1:1,2019-11-01T16:45:00Z,29.1144,-90.1840,6.7,11111222 
LUMCON,ioos:station:LUMCON:wisl1:1,2019-11-01T17:00:00Z,29.1144,-90.1840,6.57,11111222 
LUMCON,ioos:station:LUMCON:wisl1:1,2019-11-01T17:15:00Z,29.1144,-90.1840,6.63,11111222 
LUMCON,ioos:station:LUMCON:wisl1:1,2019-11-01T17:30:00Z,29.1144,-90.1840,6.53,11111222 
LUMCON,ioos:station:LUMCON:wisl1:1,2019-11-01T17:45:00Z,29.1144,-90.1840,6.76,11111222 
LUMCON,ioos:station:LUMCON:wisl1:1,2019-11-01T18:00:00Z,29.1144,-90.1840,6.92,11111222 
LUMCON,ioos:station:LUMCON:wisl1:1,2019-11-01T18:15:00Z,29.1144,-90.1840,7.19,11111222 
LUMCON,ioos:station:LUMCON:wisl1:1,2019-11-01T18:30:00Z,29.1144,-90.1840,7.67,11111222 
LUMCON,ioos:station:LUMCON:wisl1:1,2019-11-01T18:45:00Z,29.1144,-90.1840,7.18,11111222 
LUMCON,ioos:station:LUMCON:wisl1:1,2019-11-01T19:00:00Z,29.1144,-90.1840,7.17,11111222 
LUMCON,ioos:station:LUMCON:wisl1:1,2019-11-01T19:15:00Z,29.1144,-90.1840,7.62,11111222 
LUMCON,ioos:station:LUMCON:wisl1:1,2019-11-01T19:30:00Z,29.1144,-90.1840,7.79,11111222 
LUMCON,ioos:station:LUMCON:wisl1:1,2019-11-01T19:45:00Z,29.1144,-90.1840,9.52,11111222 
LUMCON,ioos:station:LUMCON:wisl1:1,2019-11-01T20:00:00Z,29.1144,-90.1840,9.51,11111222 
LUMCON,ioos:station:LUMCON:wisl1:1,2019-11-01T20:15:00Z,29.1144,-90.1840,10.44,11111222 
LUMCON,ioos:station:LUMCON:wisl1:1,2019-11-01T20:30:00Z,29.1144,-90.1840,8.81,11111222 
LUMCON,ioos:station:LUMCON:wisl1:1,2019-11-01T20:45:00Z,29.1144,-90.1840,9.43,11111222 
LUMCON,ioos:station:LUMCON:wisl1:1,2019-11-01T21:00:00Z,29.1144,-90.1840,10.22,11111222 
LUMCON,ioos:station:LUMCON:wisl1:1,2019-11-01T21:15:00Z,29.1144,-90.1840,10.68,11111222 
LUMCON,ioos:station:LUMCON:wisl1:1,2019-11-01T21:30:00Z,29.1144,-90.1840,10.75,11111222 
LUMCON,ioos:station:LUMCON:wisl1:1,2019-11-01T21:45:00Z,29.1144,-90.1840,8.88,11111222 
LUMCON,ioos:station:LUMCON:wisl1:1,2019-11-01T22:00:00Z,29.1144,-90.1840,9.42,11111222 
LUMCON,ioos:station:LUMCON:wisl1:1,2019-11-01T22:15:00Z,29.1144,-90.1840,11.93,11111222 
LUMCON,ioos:station:LUMCON:wisl1:1,2019-11-01T22:30:00Z,29.1144,-90.1840,8.25,11111222 
LUMCON,ioos:station:LUMCON:wisl1:1,2019-11-01T22:45:00Z,29.1144,-90.1840,6.61,11111222 
LUMCON,ioos:station:LUMCON:wisl1:1,2019-11-01T23:00:00Z,29.1144,-90.1840,7.34,11111222 
LUMCON,ioos:station:LUMCON:wisl1:1,2019-11-01T23:15:00Z,29.1144,-90.1840,6.43,11111222 
LUMCON,ioos:station:LUMCON:wisl1:1,2019-11-01T23:30:00Z,29.1144,-90.1840,5.4,11111222 
LUMCON,ioos:station:LUMCON:wisl1:1,2019-11-01T23:45:00Z,29.1144,-90.1840,5.91,11111222 
LUMCON,ioos:station:LUMCON:wisl1:1,2019-11-02T00:00:00Z,29.1144,-90.1840,4.72,11111222 
LUMCON,ioos:station:LUMCON:wisl1:1,2019-11-02T00:15:00Z,29.1144,-90.1840,5.48,11111222 
LUMCON,ioos:station:LUMCON:wisl1:1,2019-11-02T00:30:00Z,29.1144,-90.1840,5.46,11111222 
LUMCON,ioos:station:LUMCON:wisl1:1,2019-11-02T00:45:00Z,29.1144,-90.1840,5.03,11111222 
LUMCON,ioos:station:LUMCON:wisl1:1,2019-11-02T01:00:00Z,29.1144,-90.1840,4.92,11111222 
LUMCON,ioos:station:LUMCON:wisl1:1,2019-11-02T01:15:00Z,29.1144,-90.1840,4.27,11111222 
LUMCON,ioos:station:LUMCON:wisl1:1,2019-11-02T01:30:00Z,29.1144,-90.1840,3.73,11111222 
LUMCON,ioos:station:LUMCON:wisl1:1,2019-11-02T01:45:00Z,29.1144,-90.1840,4.67,11111222 
LUMCON,ioos:station:LUMCON:wisl1:1,2019-11-02T02:00:00Z,29.1144,-90.1840,4.63,11111222 
LUMCON,ioos:station:LUMCON:wisl1:1,2019-11-02T02:15:00Z,29.1144,-90.1840,3.99,11111222 
LUMCON,ioos:station:LUMCON:wisl1:1,2019-11-02T02:30:00Z,29.1144,-90.1840,3.48,11111222 
LUMCON,ioos:station:LUMCON:wisl1:1,2019-11-02T02:45:00Z,29.1144,-90.1840,4.36,11111222 
LUMCON,ioos:station:LUMCON:wisl1:1,2019-11-02T03:00:00Z,29.1144,-90.1840,3.35,11111222 
LUMCON,ioos:station:LUMCON:wisl1:1,2019-11-02T03:15:00Z,29.1144,-90.1840,3.28,11111222 
LUMCON,ioos:station:LUMCON:wisl1:1,2019-11-02T03:30:00Z,29.1144,-90.1840,3.17,11111222 
LUMCON,ioos:station:LUMCON:wisl1:1,2019-11-02T03:45:00Z,29.1144,-90.1840,3.71,11111222 
LUMCON,ioos:station:LUMCON:wisl1:1,2019-11-02T04:00:00Z,29.1144,-90.1840,4.28,11111222 
LUMCON,ioos:station:LUMCON:wisl1:1,2019-11-02T04:15:00Z,29.1144,-90.1840,3.78,11111222 
LUMCON,ioos:station:LUMCON:wisl1:1,2019-11-02T04:30:00Z,29.1144,-90.1840,4.12,11111222 
LUMCON,ioos:station:LUMCON:wisl1:1,2019-11-02T04:45:00Z,29.1144,-90.1840,4.26,11111222 
LUMCON,ioos:station:LUMCON:wisl1:1,2019-11-02T05:00:00Z,29.1144,-90.1840,4.0,11111222 
LUMCON,ioos:station:LUMCON:wisl1:1,2019-11-02T05:15:00Z,29.1144,-90.1840,4.51,11111222 
LUMCON,ioos:station:LUMCON:wisl1:1,2019-11-02T05:30:00Z,29.1144,-90.1840,4.1,11111222 
LUMCON,ioos:station:LUMCON:wisl1:1,2019-11-02T05:45:00Z,29.1144,-90.1840,4.0,11111222 
LUMCON,ioos:station:LUMCON:wisl1:1,2019-11-02T06:00:00Z,29.1144,-90.1840,4.35,11111222 
LUMCON,ioos:station:LUMCON:wisl1:1,2019-11-02T06:15:00Z,29.1144,-90.1840,4.5,11111222 
LUMCON,ioos:station:LUMCON:wisl1:1,2019-11-02T06:30:00Z,29.1144,-90.1840,5.46,11111222 
LUMCON,ioos:station:LUMCON:wisl1:1,2019-11-02T06:45:00Z,29.1144,-90.1840,4.14,11111222 
LUMCON,ioos:station:LUMCON:wisl1:1,2019-11-02T07:00:00Z,29.1144,-90.1840,4.27,11111222 
LUMCON,ioos:station:LUMCON:wisl1:1,2019-11-02T07:15:00Z,29.1144,-90.1840,4.12,11111222 
LUMCON,ioos:station:LUMCON:wisl1:1,2019-11-02T07:30:00Z,29.1144,-90.1840,4.4,11111222 
LUMCON,ioos:station:LUMCON:wisl1:1,2019-11-02T07:45:00Z,29.1144,-90.1840,4.12,11111222 
LUMCON,ioos:station:LUMCON:wisl1:1,2019-11-02T08:00:00Z,29.1144,-90.1840,4.15,11111222 
LUMCON,ioos:station:LUMCON:wisl1:1,2019-11-02T08:15:00Z,29.1144,-90.1840,4.03,11111222 
LUMCON,ioos:station:LUMCON:wisl1:1,2019-11-02T08:30:00Z,29.1144,-90.1840,3.84,11111222 
LUMCON,ioos:station:LUMCON:wisl1:1,2019-11-02T08:45:00Z,29.1144,-90.1840,4.3,11111222 
LUMCON,ioos:station:LUMCON:wisl1:1,2019-11-02T09:00:00Z,29.1144,-90.1840,3.7,11111222 
LUMCON,ioos:station:LUMCON:wisl1:1,2019-11-02T09:15:00Z,29.1144,-90.1840,3.52,11111222 
LUMCON,ioos:station:LUMCON:wisl1:1,2019-11-02T09:30:00Z,29.1144,-90.1840,3.23,11111222 
LUMCON,ioos:station:LUMCON:wisl1:1,2019-11-02T09:45:00Z,29.1144,-90.1840,3.31,11111222 
LUMCON,ioos:station:LUMCON:wisl1:1,2019-11-02T10:00:00Z,29.1144,-90.1840,3.28,11111222 
LUMCON,ioos:station:LUMCON:wisl1:1,2019-11-02T10:15:00Z,29.1144,-90.1840,3.19,11111222 
LUMCON,ioos:station:LUMCON:wisl1:1,2019-11-02T10:30:00Z,29.1144,-90.1840,3.16,11111222 
LUMCON,ioos:station:LUMCON:wisl1:1,2019-11-02T10:45:00Z,29.1144,-90.1840,3.27,11111222 
LUMCON,ioos:station:LUMCON:wisl1:1,2019-11-02T11:00:00Z,29.1144,-90.1840,3.35,11111222 
LUMCON,ioos:station:LUMCON:wisl1:1,2019-11-02T11:15:00Z,29.1144,-90.1840,3.66,11111222 
LUMCON,ioos:station:LUMCON:wisl1:1,2019-11-02T11:30:00Z,29.1144,-90.1840,3.56,11111222 
LUMCON,ioos:station:LUMCON:wisl1:1,2019-11-02T11:45:00Z,29.1144,-90.1840,3.83,11111222 
LUMCON,ioos:station:LUMCON:wisl1:1,2019-11-02T12:00:00Z,29.1144,-90.1840,3.77,11111222 
LUMCON,ioos:station:LUMCON:wisl1:1,2019-11-02T12:15:00Z,29.1144,-90.1840,3.93,11111222 
LUMCON,ioos:station:LUMCON:wisl1:1,2019-11-02T12:30:00Z,29.1144,-90.1840,4.0,11111222 
LUMCON,ioos:station:LUMCON:wisl1:1,2019-11-02T12:45:00Z,29.1144,-90.1840,3.94,11111222 
LUMCON,ioos:station:LUMCON:wisl1:1,2019-11-02T13:00:00Z,29.1144,-90.1840,3.71,11111222 
LUMCON,ioos:station:LUMCON:wisl1:1,2019-11-02T13:15:00Z,29.1144,-90.1840,4.02,11111222 
LUMCON,ioos:station:LUMCON:wisl1:1,2019-11-02T13:30:00Z,29.1144,-90.1840,3.88,11111222 
LUMCON,ioos:station:LUMCON:wisl1:1,2019-11-02T22:00:00Z,29.1144,-90.1840,10.21,11111222 
LUMCON,ioos:station:LUMCON:wisl1:1,2019-11-02T22:15:00Z,29.1144,-90.1840,8.73,11111222 
LUMCON,ioos:station:LUMCON:wisl1:1,2019-11-02T22:30:00Z,29.1144,-90.1840,9.38,11111222 
LUMCON,ioos:station:LUMCON:wisl1:1,2019-11-02T22:45:00Z,29.1144,-90.1840,9.71,11111222 
LUMCON,ioos:station:LUMCON:wisl1:1,2019-11-02T23:00:00Z,29.1144,-90.1840,9.81,11111222 
LUMCON,ioos:station:LUMCON:wisl1:1,2019-11-02T23:15:00Z,29.1144,-90.1840,9.28,11111222 
LUMCON,ioos:station:LUMCON:wisl1:1,2019-11-02T23:30:00Z,29.1144,-90.1840,9.18,11111222 
LUMCON,ioos:station:LUMCON:wisl1:1,2019-11-02T23:45:00Z,29.1144,-90.1840,9.04,11111222 
LUMCON,ioos:station:LUMCON:wisl1:1,2019-11-03T00:00:00Z,29.1144,-90.1840,9.39,11111222 
LUMCON,ioos:station:LUMCON:wisl1:1,2019-11-03T00:15:00Z,29.1144,-90.1840,10.26,11111222 
LUMCON,ioos:station:LUMCON:wisl1:1,2019-11-03T00:30:00Z,29.1144,-90.1840,9.21,11111222 
LUMCON,ioos:station:LUMCON:wisl1:1,2019-11-03T00:45:00Z,29.1144,-90.1840,9.15,11111222 
LUMCON,ioos:station:LUMCON:wisl1:1,2019-11-03T01:00:00Z,29.1144,-90.1840,8.09,11111222 
LUMCON,ioos:station:LUMCON:wisl1:1,2019-11-03T01:15:00Z,29.1144,-90.1840,8.03,11111222 
LUMCON,ioos:station:LUMCON:wisl1:1,2019-11-03T01:30:00Z,29.1144,-90.1840,7.79,11111222 
LUMCON,ioos:station:LUMCON:wisl1:1,2019-11-03T01:45:00Z,29.1144,-90.1840,6.83,11111222 
LUMCON,ioos:station:LUMCON:wisl1:1,2019-11-03T02:00:00Z,29.1144,-90.1840,6.19,11111222 
LUMCON,ioos:station:LUMCON:wisl1:1,2019-11-03T02:15:00Z,29.1144,-90.1840,5.75,11111222 
LUMCON,ioos:station:LUMCON:wisl1:1,2019-11-03T02:30:00Z,29.1144,-90.1840,5.94,11111222 
LUMCON,ioos:station:LUMCON:wisl1:1,2019-11-03T02:45:00Z,29.1144,-90.1840,5.18,11111222 
LUMCON,ioos:station:LUMCON:wisl1:1,2019-11-03T03:00:00Z,29.1144,-90.1840,5.66,11111222 
LUMCON,ioos:station:LUMCON:wisl1:1,2019-11-03T03:15:00Z,29.1144,-90.1840,5.2,11111222 
LUMCON,ioos:station:LUMCON:wisl1:1,2019-11-03T03:30:00Z,29.1144,-90.1840,5.24,11111222 
LUMCON,ioos:station:LUMCON:wisl1:1,2019-11-03T03:45:00Z,29.1144,-90.1840,5.35,11111222 
LUMCON,ioos:station:LUMCON:wisl1:1,2019-11-03T04:00:00Z,29.1144,-90.1840,5.44,11111222 
LUMCON,ioos:station:LUMCON:wisl1:1,2019-11-03T04:15:00Z,29.1144,-90.1840,5.21,11111222 
LUMCON,ioos:station:LUMCON:wisl1:1,2019-11-03T04:30:00Z,29.1144,-90.1840,5.02,11111222 
LUMCON,ioos:station:LUMCON:wisl1:1,2019-11-03T04:45:00Z,29.1144,-90.1840,4.47,11111222 
LUMCON,ioos:station:LUMCON:wisl1:1,2019-11-03T05:00:00Z,29.1144,-90.1840,5.27,11111222 
LUMCON,ioos:station:LUMCON:wisl1:1,2019-11-03T05:15:00Z,29.1144,-90.1840,4.83,11111222 
LUMCON,ioos:station:LUMCON:wisl1:1,2019-11-03T05:30:00Z,29.1144,-90.1840,5.05,11111222 
LUMCON,ioos:station:LUMCON:wisl1:1,2019-11-03T05:45:00Z,29.1144,-90.1840,5.17,11111222 
LUMCON,ioos:station:LUMCON:wisl1:1,2019-11-03T06:00:00Z,29.1144,-90.1840,5.48,11111222 
LUMCON,ioos:station:LUMCON:wisl1:1,2019-11-03T06:15:00Z,29.1144,-90.1840,5.16,11111222 
LUMCON,ioos:station:LUMCON:wisl1:1,2019-11-03T06:30:00Z,29.1144,-90.1840,4.67,11111222 
LUMCON,ioos:station:LUMCON:wisl1:1,2019-11-03T06:45:00Z,29.1144,-90.1840,5.07,11111222 
LUMCON,ioos:station:LUMCON:wisl1:1,2019-11-03T07:00:00Z,29.1144,-90.1840,5.54,11111222 
LUMCON,ioos:station:LUMCON:wisl1:1,2019-11-03T07:15:00Z,29.1144,-90.1840,4.83,11111222 
LUMCON,ioos:station:LUMCON:wisl1:1,2019-11-03T07:30:00Z,29.1144,-90.1840,4.15,11111222 
LUMCON,ioos:station:LUMCON:wisl1:1,2019-11-03T07:45:00Z,29.1144,-90.1840,4.58,11111222 
LUMCON,ioos:station:LUMCON:wisl1:1,2019-11-03T08:00:00Z,29.1144,-90.1840,4.81,11111222 
LUMCON,ioos:station:LUMCON:wisl1:1,2019-11-03T08:15:00Z,29.1144,-90.1840,4.67,11111222 
LUMCON,ioos:station:LUMCON:wisl1:1,2019-11-03T08:30:00Z,29.1144,-90.1840,4.6,11111222 
LUMCON,ioos:station:LUMCON:wisl1:1,2019-11-03T08:45:00Z,29.1144,-90.1840,4.8,11111222 
LUMCON,ioos:station:LUMCON:wisl1:1,2019-11-03T09:00:00Z,29.1144,-90.1840,4.22,11111222 
LUMCON,ioos:station:LUMCON:wisl1:1,2019-11-03T09:15:00Z,29.1144,-90.1840,4.63,11111222 
LUMCON,ioos:station:LUMCON:wisl1:1,2019-11-03T09:30:00Z,29.1144,-90.1840,4.88,11111222 
LUMCON,ioos:station:LUMCON:wisl1:1,2019-11-03T09:45:00Z,29.1144,-90.1840,4.32,11111222 
LUMCON,ioos:station:LUMCON:wisl1:1,2019-11-03T10:00:00Z,29.1144,-90.1840,4.25,11111222 
LUMCON,ioos:station:LUMCON:wisl1:1,2019-11-03T10:15:00Z,29.1144,-90.1840,4.85,11111222 
LUMCON,ioos:station:LUMCON:wisl1:1,2019-11-03T10:30:00Z,29.1144,-90.1840,4.32,11111222 
LUMCON,ioos:station:LUMCON:wisl1:1,2019-11-03T10:45:00Z,29.1144,-90.1840,4.13,11111222 
LUMCON,ioos:station:LUMCON:wisl1:1,2019-11-03T11:00:00Z,29.1144,-90.1840,3.91,11111222 
LUMCON,ioos:station:LUMCON:wisl1:1,2019-11-03T11:15:00Z,29.1144,-90.1840,4.14,11111222 
LUMCON,ioos:station:LUMCON:wisl1:1,2019-11-03T11:30:00Z,29.1144,-90.1840,3.74,11111222 
LUMCON,ioos:station:LUMCON:wisl1:1,2019-11-03T11:45:00Z,29.1144,-90.1840,4.08,11111222 
LUMCON,ioos:station:LUMCON:wisl1:1,2019-11-03T12:00:00Z,29.1144,-90.1840,3.8,11111222 
LUMCON,ioos:station:LUMCON:wisl1:1,2019-11-03T12:15:00Z,29.1144,-90.1840,3.74,11111222 
LUMCON,ioos:station:LUMCON:wisl1:1,2019-11-03T12:30:00Z,29.1144,-90.1840,3.62,11111222 
LUMCON,ioos:station:LUMCON:wisl1:1,2019-11-03T12:45:00Z,29.1144,-90.1840,3.57,11111222 
LUMCON,ioos:station:LUMCON:wisl1:1,2019-11-03T13:00:00Z,29.1144,-90.1840,3.76,11111222 
LUMCON,ioos:station:LUMCON:wisl1:1,2019-11-03T13:15:00Z,29.1144,-90.1840,3.54,11111222 
LUMCON,ioos:station:LUMCON:wisl1:1,2019-11-03T13:30:00Z,29.1144,-90.1840,3.66,11111222 
LUMCON,ioos:station:LUMCON:wisl1:1,2019-11-03T13:45:00Z,29.1144,-90.1840,4.01,11111222 
LUMCON,ioos:station:LUMCON:wisl1:1,2019-11-03T14:00:00Z,29.1144,-90.1840,3.97,11111222 
LUMCON,ioos:station:LUMCON:wisl1:1,2019-11-03T14:15:00Z,29.1144,-90.1840,4.61,11111222 
LUMCON,ioos:station:LUMCON:wisl1:1,2019-11-03T14:30:00Z,29.1144,-90.1840,4.59,11111222 
LUMCON,ioos:station:LUMCON:wisl1:1,2019-11-03T14:45:00Z,29.1144,-90.1840,4.41,11111222 
LUMCON,ioos:station:LUMCON:wisl1:1,2019-11-03T15:00:00Z,29.1144,-90.1840,4.69,11111222 
LUMCON,ioos:station:LUMCON:wisl1:1,2019-11-03T15:15:00Z,29.1144,-90.1840,4.86,11111222 
LUMCON,ioos:station:LUMCON:wisl1:1,2019-11-03T15:30:00Z,29.1144,-90.1840,4.93,11111222 
LUMCON,ioos:station:LUMCON:wisl1:1,2019-11-03T15:45:00Z,29.1144,-90.1840,4.96,11111222 
LUMCON,ioos:station:LUMCON:wisl1:1,2019-11-03T16:00:00Z,29.1144,-90.1840,5.08,11111222 
LUMCON,ioos:station:LUMCON:wisl1:1,2019-11-03T16:15:00Z,29.1144,-90.1840,4.75,11111222 
LUMCON,ioos:station:LUMCON:wisl1:1,2019-11-03T16:30:00Z,29.1144,-90.1840,4.88,11111222 
LUMCON,ioos:station:LUMCON:wisl1:1,2019-11-03T16:45:00Z,29.1144,-90.1840,4.79,11111222 
LUMCON,ioos:station:LUMCON:wisl1:1,2019-11-03T22:00:00Z,29.1144,-90.1840,8.78,11111222 
LUMCON,ioos:station:LUMCON:wisl1:1,2019-11-03T22:15:00Z,29.1144,-90.1840,8.82,11111222 
LUMCON,ioos:station:LUMCON:wisl1:1,2019-11-03T22:30:00Z,29.1144,-90.1840,10.85,11111222 
LUMCON,ioos:station:LUMCON:wisl1:1,2019-11-03T22:45:00Z,29.1144,-90.1840,10.57,11111222 
LUMCON,ioos:station:LUMCON:wisl1:1,2019-11-03T23:00:00Z,29.1144,-90.1840,11.24,11111222 
LUMCON,ioos:station:LUMCON:wisl1:1,2019-11-03T23:15:00Z,29.1144,-90.1840,10.46,11111222 
LUMCON,ioos:station:LUMCON:wisl1:1,2019-11-03T23:30:00Z,29.1144,-90.1840,10.32,11111222 
LUMCON,ioos:station:LUMCON:wisl1:1,2019-11-03T23:45:00Z,29.1144,-90.1840,8.81,11111222 
LUMCON,ioos:station:LUMCON:wisl1:1,2019-11-04T00:00:00Z,29.1144,-90.1840,8.57,11111222 
LUMCON,ioos:station:LUMCON:wisl1:1,2019-11-04T00:15:00Z,29.1144,-90.1840,8.03,11111222 
LUMCON,ioos:station:LUMCON:wisl1:1,2019-11-04T00:30:00Z,29.1144,-90.1840,7.27,11111222 
LUMCON,ioos:station:LUMCON:wisl1:1,2019-11-04T00:45:00Z,29.1144,-90.1840,6.78,11111222 
LUMCON,ioos:station:LUMCON:wisl1:1,2019-11-04T01:00:00Z,29.1144,-90.1840,6.57,11111222 
LUMCON,ioos:station:LUMCON:wisl1:1,2019-11-04T01:15:00Z,29.1144,-90.1840,6.12,11111222 
LUMCON,ioos:station:LUMCON:wisl1:1,2019-11-04T01:30:00Z,29.1144,-90.1840,5.88,11111222 
LUMCON,ioos:station:LUMCON:wisl1:1,2019-11-04T01:45:00Z,29.1144,-90.1840,5.5,11111222 
LUMCON,ioos:station:LUMCON:wisl1:1,2019-11-04T02:00:00Z,29.1144,-90.1840,5.85,11111222 
LUMCON,ioos:station:LUMCON:wisl1:1,2019-11-04T02:15:00Z,29.1144,-90.1840,5.75,11111222 
LUMCON,ioos:station:LUMCON:wisl1:1,2019-11-04T02:30:00Z,29.1144,-90.1840,5.68,11111222 
LUMCON,ioos:station:LUMCON:wisl1:1,2019-11-04T02:45:00Z,29.1144,-90.1840,4.86,11111222 
LUMCON,ioos:station:LUMCON:wisl1:1,2019-11-04T03:00:00Z,29.1144,-90.1840,5.5,11111222 
LUMCON,ioos:station:LUMCON:wisl1:1,2019-11-04T03:15:00Z,29.1144,-90.1840,5.15,11111222 
LUMCON,ioos:station:LUMCON:wisl1:1,2019-11-04T03:30:00Z,29.1144,-90.1840,5.6,11111222 
LUMCON,ioos:station:LUMCON:wisl1:1,2019-11-04T03:45:00Z,29.1144,-90.1840,5.91,11111222 
LUMCON,ioos:station:LUMCON:wisl1:1,2019-11-04T04:00:00Z,29.1144,-90.1840,5.96,11111222 
LUMCON,ioos:station:LUMCON:wisl1:1,2019-11-04T04:15:00Z,29.1144,-90.1840,5.65,11111222 
LUMCON,ioos:station:LUMCON:wisl1:1,2019-11-04T04:30:00Z,29.1144,-90.1840,6.65,11111222 
LUMCON,ioos:station:LUMCON:wisl1:1,2019-11-04T04:45:00Z,29.1144,-90.1840,5.64,11111222 
LUMCON,ioos:station:LUMCON:wisl1:1,2019-11-04T05:00:00Z,29.1144,-90.1840,5.35,11111222 
LUMCON,ioos:station:LUMCON:wisl1:1,2019-11-04T05:15:00Z,29.1144,-90.1840,5.97,11111222 
LUMCON,ioos:station:LUMCON:wisl1:1,2019-11-04T14:00:00Z,29.1144,-90.1840,4.13,11111222 
LUMCON,ioos:station:LUMCON:wisl1:1,2019-11-04T14:15:00Z,29.1144,-90.1840,4.28,11111222 
LUMCON,ioos:station:LUMCON:wisl1:1,2019-11-04T14:30:00Z,29.1144,-90.1840,4.74,11111222 
LUMCON,ioos:station:LUMCON:wisl1:1,2019-11-04T14:45:00Z,29.1144,-90.1840,4.89,11111222 
LUMCON,ioos:station:LUMCON:wisl1:1,2019-11-04T15:00:00Z,29.1144,-90.1840,4.5,11111222 
LUMCON,ioos:station:LUMCON:wisl1:1,2019-11-04T15:15:00Z,29.1144,-90.1840,4.78,11111222 
LUMCON,ioos:station:LUMCON:wisl1:1,2019-11-04T15:30:00Z,29.1144,-90.1840,5.22,11111222 
LUMCON,ioos:station:LUMCON:wisl1:1,2019-11-04T15:45:00Z,29.1144,-90.1840,5.08,11111222 
LUMCON,ioos:station:LUMCON:wisl1:1,2019-11-04T16:00:00Z,29.1144,-90.1840,4.85,11111222 
LUMCON,ioos:station:LUMCON:wisl1:1,2019-11-04T16:15:00Z,29.1144,-90.1840,4.91,11111222 
LUMCON,ioos:station:LUMCON:wisl1:1,2019-11-04T16:30:00Z,29.1144,-90.1840,5.13,11111222 
LUMCON,ioos:station:LUMCON:wisl1:1,2019-11-04T16:45:00Z,29.1144,-90.1840,5.17,11111222 
LUMCON,ioos:station:LUMCON:wisl1:1,2019-11-04T17:00:00Z,29.1144,-90.1840,5.22,11111222 
LUMCON,ioos:station:LUMCON:wisl1:1,2019-11-04T17:15:00Z,29.1144,-90.1840,5.23,11111222 
LUMCON,ioos:station:LUMCON:wisl1:1,2019-11-04T17:30:00Z,29.1144,-90.1840,5.53,11111222 
LUMCON,ioos:station:LUMCON:wisl1:1,2019-11-04T17:45:00Z,29.1144,-90.1840,5.39,11111222 
LUMCON,ioos:station:LUMCON:wisl1:1,2019-11-04T18:00:00Z,29.1144,-90.1840,5.39,11111222 
LUMCON,ioos:station:LUMCON:wisl1:1,2019-11-04T18:15:00Z,29.1144,-90.1840,5.98,11111222 
LUMCON,ioos:station:LUMCON:wisl1:1,2019-11-04T18:30:00Z,29.1144,-90.1840,5.95,11111222 
LUMCON,ioos:station:LUMCON:wisl1:1,2019-11-04T18:45:00Z,29.1144,-90.1840,6.0,11111222 
LUMCON,ioos:station:LUMCON:wisl1:1,2019-11-04T19:00:00Z,29.1144,-90.1840,6.21,11111222 
LUMCON,ioos:station:LUMCON:wisl1:1,2019-11-04T19:15:00Z,29.1144,-90.1840,6.96,11111222 
LUMCON,ioos:station:LUMCON:wisl1:1,2019-11-04T19:30:00Z,29.1144,-90.1840,6.6,11111222 
LUMCON,ioos:station:LUMCON:wisl1:1,2019-11-04T19:45:00Z,29.1144,-90.1840,6.86,11111222 
LUMCON,ioos:station:LUMCON:wisl1:1,2019-11-04T20:00:00Z,29.1144,-90.1840,7.25,11111222 
LUMCON,ioos:station:LUMCON:wisl1:1,2019-11-04T20:15:00Z,29.1144,-90.1840,7.4,11111222 
LUMCON,ioos:station:LUMCON:wisl1:1,2019-11-04T20:30:00Z,29.1144,-90.1840,7.38,11111222 
LUMCON,ioos:station:LUMCON:wisl1:1,2019-11-04T20:45:00Z,29.1144,-90.1840,7.73,11111222 
LUMCON,ioos:station:LUMCON:wisl1:1,2019-11-04T21:00:00Z,29.1144,-90.1840,8.03,11111222 
LUMCON,ioos:station:LUMCON:wisl1:1,2019-11-04T21:15:00Z,29.1144,-90.1840,8.27,11111222 
LUMCON,ioos:station:LUMCON:wisl1:1,2019-11-04T21:30:00Z,29.1144,-90.1840,8.68,11111222 
LUMCON,ioos:station:LUMCON:wisl1:1,2019-11-04T21:45:00Z,29.1144,-90.1840,14.07,11111222 
LUMCON,ioos:station:LUMCON:wisl1:1,2019-11-04T22:00:00Z,29.1144,-90.1840,9.28,11111222 
LUMCON,ioos:station:LUMCON:wisl1:1,2019-11-04T22:15:00Z,29.1144,-90.1840,10.55,11111222 
LUMCON,ioos:station:LUMCON:wisl1:1,2019-11-05T15:00:00Z,29.1144,-90.1840,4.47,11111222 
LUMCON,ioos:station:LUMCON:wisl1:1,2019-11-05T15:15:00Z,29.1144,-90.1840,4.36,11111222 
LUMCON,ioos:station:LUMCON:wisl1:1,2019-11-05T15:30:00Z,29.1144,-90.1840,4.44,11111222 
LUMCON,ioos:station:LUMCON:wisl1:1,2019-11-05T15:45:00Z,29.1144,-90.1840,4.69,11111222 
LUMCON,ioos:station:LUMCON:wisl1:1,2019-11-05T16:00:00Z,29.1144,-90.1840,4.48,11111222 